Вернуться в каталог

ATLAS 5 CENTAUR DEB

АктивенHEO
NORAD 44690·DEBRIS·🇺🇸 United States

Запущен Oct 17, 2018 с Cape Canaveral Space Force Station

Loading…

Ближайшие Пролёты (ближайшие 24 часа)

TLE

СвежийSource: Space-Track

Эпоха: Sep 12, 2026, 22:16 UTC

1 44690U 18079BC  26255.92844284 -.00000167  00000-0  00000-0 0  9994
2 44690  13.1371  29.0139 4401461 335.4590   8.6644  1.88480858 48756

Отслеживайте ATLAS 5 CENTAUR DEB в реальном времени с AllMySat

Download on the App Store